View from above orbital plane
|
View from above satellite
|
Ground track
|
The orbit data is extracted from the following two-line orbital elements,
1 42330U 95015JY 22228.53258986 .00003982 00000-0 15121-2 0 9998
2 42330 98.6899 258.2081 0010185 350.3066 9.7919 14.31569022357875
Epoch (UTC): | 16 August 2022 12:46:55 |
Eccentricity: | 0.0010185 |
inclination: | 98.6899° |
perigee height: | 779 km |
apogee height: | 794 km |
right ascension of ascending node: | 258.2081° |
argument of perigee: | 350.3066° |
revolutions per day: | 14.31569022 |
mean anomaly at epoch: | 9.7919° |
orbit number at epoch: | 35787 |
The dashed part of the orbit path shows where the satellite is in the earth's shadow,
|
|